Location: Albuquerque Trailhead
(34.7934°N, 106.3736°W)
Time: 02:13:10
(UTC+00:00)

Cosmos 2237 Rocket - Pass Details

Date: 20 June 2021
Orbit: 835 x 850 km, 71.0° (Epoch: 27 July)

Event Time Altitude Azimuth Distance (km) Brightness Sun altitude
Exits shadow 07:07:31 13° 279° (W) 2,237 4.5 -31.8°
Maximum altitude 07:09:44 16° 305° (NW) 2,060 4.5 -31.8°
Drops below altitude 10° 07:13:04 10° 342° (NNW) 2,450 5.4 -31.8°
Sets 07:16:34 0° 4° (N) 3,388 6.5 -31.7°
